Stündliche Wetter Kyzylshekara

Heute, 10 Mai, Montag

Zeit Temperatur Niederschläge Wind Luftdruck Luftfeuchtigkeit
00:00 +14°C° 0 mm 1 m/S 613 mmHg 66%
01:00 +13°C° 0 mm 1 m/S 613 mmHg 66%
02:00 +13°C° 0 mm 1 m/S 613 mmHg 66%
03:00 +13°C° 0 mm 1 m/S 613 mmHg 68%
04:00 +13°C° 0 mm 1 m/S 613 mmHg 71%
05:00 +12°C° 0 mm 1 m/S 613 mmHg 73%
06:00 +13°C° 0 mm 1 m/S 613 mmHg 73%
07:00 +14°C° 0 mm 1 m/S 614 mmHg 72%
08:00 +15°C° 0 mm 2 m/S 614 mmHg 72%
09:00 +16°C° 0 mm 2 m/S 614 mmHg 67%
10:00 +17°C° 0 mm 2 m/S 614 mmHg 62%
11:00 +19°C° 0 mm 2 m/S 614 mmHg 54%
12:00 +19°C° 0.4 mm 2 m/S 613 mmHg 53%
13:00 +19°C° 0.4 mm 2 m/S 613 mmHg 52%
14:00 +20°C° 0.4 mm 2 m/S 613 mmHg 52%
15:00 +18°C° 1.1 mm 2 m/S 612 mmHg 58%
16:00 +18°C° 1.1 mm 1 m/S 612 mmHg 65%
17:00 +16°C° 1.1 mm 1 m/S 612 mmHg 71%
18:00 +15°C° 0.9 mm 1 m/S 612 mmHg 76%
19:00 +14°C° 0.9 mm 1 m/S 612 mmHg 80%
20:00 +13°C° 0.9 mm 1 m/S 613 mmHg 84%
21:00 +13°C° 0.3 mm 1 m/S 613 mmHg 86%
22:00 +13°C° 0.3 mm 1 m/S 612 mmHg 88%
23:00 +12°C° 0.3 mm 1 m/S 612 mmHg 90%

Morgen, 11 Mai, Dienstag

Zeit Temperatur Niederschläge Wind Luftdruck Luftfeuchtigkeit
00:00 +12°C° 0.1 mm 1 m/S 612 mmHg 90%
01:00 +12°C° 0.1 mm 1 m/S 612 mmHg 91%
02:00 +11°C° 0.1 mm 0 m/S 611 mmHg 91%
03:00 +11°C° 0.1 mm 0 m/S 611 mmHg 90%
04:00 +11°C° 0.1 mm 1 m/S 611 mmHg 89%
05:00 +11°C° 0.1 mm 1 m/S 611 mmHg 89%
06:00 +11°C° 1.7 mm 1 m/S 611 mmHg 88%
07:00 +9°C° 1.7 mm 2 m/S 612 mmHg 87%
08:00 +8°C° 1.7 mm 3 m/S 612 mmHg 87%
09:00 +8°C° 1.1 mm 3 m/S 612 mmHg 85%
10:00 +9°C° 1.1 mm 2 m/S 613 mmHg 82%
11:00 +9°C° 1.1 mm 2 m/S 613 mmHg 80%
12:00 +10°C° 0.2 mm 2 m/S 613 mmHg 75%
13:00 +10°C° 0.2 mm 2 m/S 614 mmHg 70%
14:00 +12°C° 0.2 mm 2 m/S 614 mmHg 64%
15:00 +12°C° 0 mm 2 m/S 614 mmHg 63%
16:00 +12°C° 0 mm 1 m/S 614 mmHg 61%
17:00 +13°C° 0 mm 1 m/S 614 mmHg 59%
18:00 +12°C° 0 mm 2 m/S 614 mmHg 63%
19:00 +10°C° 0 mm 2 m/S 614 mmHg 66%
20:00 +9°C° 0 mm 3 m/S 614 mmHg 70%
21:00 +9°C° 0 mm 2 m/S 614 mmHg 72%
22:00 +8°C° 0 mm 2 m/S 614 mmHg 74%
23:00 +8°C° 0 mm 2 m/S 614 mmHg 76%

übermorgen, 12 Mai, Mittwoch

Zeit Temperatur Niederschläge Wind Luftdruck Luftfeuchtigkeit
00:00 +8°C° 0 mm 2 m/S 613 mmHg 75%
01:00 +7°C° 0 mm 2 m/S 613 mmHg 74%
02:00 +7°C° 0 mm 2 m/S 613 mmHg 73%
03:00 +7°C° 0 mm 2 m/S 612 mmHg 72%
04:00 +7°C° 0 mm 2 m/S 612 mmHg 72%
05:00 +7°C° 0 mm 2 m/S 612 mmHg 71%
06:00 +9°C° 0 mm 2 m/S 613 mmHg 65%
07:00 +10°C° 0 mm 2 m/S 613 mmHg 60%
08:00 +13°C° 0 mm 2 m/S 613 mmHg 54%
09:00 +13°C° 0 mm 3 m/S 613 mmHg 49%
10:00 +14°C° 0 mm 3 m/S 613 mmHg 45%
11:00 +15°C° 0 mm 4 m/S 613 mmHg 41%
12:00 +15°C° 0.2 mm 4 m/S 613 mmHg 43%
13:00 +15°C° 0.2 mm 5 m/S 613 mmHg 46%
14:00 +14°C° 0.2 mm 6 m/S 613 mmHg 48%
15:00 +13°C° 0.2 mm 6 m/S 613 mmHg 54%
16:00 +11°C° 0.2 mm 6 m/S 613 mmHg 60%
17:00 +9°C° 0.2 mm 5 m/S 613 mmHg 66%
18:00 +8°C° 0.1 mm 5 m/S 613 mmHg 70%
19:00 +7°C° 0.1 mm 4 m/S 613 mmHg 73%
20:00 +6°C° 0.1 mm 4 m/S 614 mmHg 76%
21:00 +7°C° 0 mm 3 m/S 613 mmHg 74%
22:00 +7°C° 0 mm 3 m/S 613 mmHg 73%
23:00 +7°C° 0 mm 2 m/S 613 mmHg 71%

13 Mai, Donnerstag

Zeit Temperatur Niederschläge Wind Luftdruck Luftfeuchtigkeit
00:00 +6°C° 0 mm 2 m/S 613 mmHg 71%
01:00 +6°C° 0 mm 2 m/S 613 mmHg 71%
02:00 +5°C° 0 mm 2 m/S 612 mmHg 71%
03:00 +6°C° 0 mm 1 m/S 613 mmHg 70%
04:00 +6°C° 0 mm 1 m/S 613 mmHg 69%
05:00 +5°C° 0 mm 1 m/S 613 mmHg 68%
06:00 +6°C° 0 mm 1 m/S 613 mmHg 63%
07:00 +8°C° 0 mm 1 m/S 613 mmHg 58%
08:00 +9°C° 0 mm 1 m/S 614 mmHg 53%
09:00 +9°C° 0 mm 2 m/S 614 mmHg 46%
10:00 +12°C° 0 mm 2 m/S 614 mmHg 39%
11:00 +13°C° 0 mm 2 m/S 614 mmHg 32%
12:00 +13°C° 0 mm 3 m/S 614 mmHg 29%
13:00 +14°C° 0 mm 3 m/S 613 mmHg 27%
14:00 +16°C° 0 mm 3 m/S 613 mmHg 24%
15:00 +14°C° 0 mm 3 m/S 613 mmHg 27%
16:00 +13°C° 0 mm 3 m/S 613 mmHg 30%
17:00 +13°C° 0 mm 3 m/S 613 mmHg 34%
18:00 +12°C° 0 mm 2 m/S 613 mmHg 44%
19:00 +9°C° 0 mm 2 m/S 613 mmHg 54%
20:00 +8°C° 0 mm 1 m/S 613 mmHg 65%
21:00 +7°C° 0 mm 1 m/S 613 mmHg 66%
22:00 +6°C° 0 mm 0 m/S 612 mmHg 66%
23:00 +6°C° 0 mm 0 m/S 612 mmHg 67%

14 Mai, Freitag

Zeit Temperatur Niederschläge Wind Luftdruck Luftfeuchtigkeit
00:00 +6°C° 0 mm 1 m/S 612 mmHg 67%
01:00 +6°C° 0 mm 1 m/S 612 mmHg 68%
02:00 +6°C° 0 mm 1 m/S 612 mmHg 68%
03:00 +6°C° 0 mm 1 m/S 612 mmHg 68%
04:00 +6°C° 0 mm 1 m/S 612 mmHg 68%
05:00 +5°C° 0 mm 0 m/S 612 mmHg 68%
06:00 +7°C° 0 mm 1 m/S 613 mmHg 63%
07:00 +7°C° 0 mm 2 m/S 613 mmHg 58%
08:00 +8°C° 0 mm 3 m/S 613 mmHg 52%
09:00 +10°C° 0 mm 3 m/S 614 mmHg 49%
10:00 +11°C° 0 mm 3 m/S 614 mmHg 46%
11:00 +12°C° 0 mm 3 m/S 614 mmHg 43%
12:00 +13°C° 0.1 mm 4 m/S 614 mmHg 43%
13:00 +13°C° 0.1 mm 4 m/S 613 mmHg 42%
14:00 +13°C° 0.1 mm 4 m/S 613 mmHg 42%
15:00 +13°C° 0.1 mm 4 m/S 613 mmHg 45%
16:00 +12°C° 0.1 mm 3 m/S 613 mmHg 48%
17:00 +12°C° 0.1 mm 3 m/S 613 mmHg 51%
18:00 +11°C° 0.1 mm 3 m/S 614 mmHg 56%
19:00 +9°C° 0.1 mm 2 m/S 614 mmHg 61%
20:00 +8°C° 0.1 mm 2 m/S 614 mmHg 66%
21:00 +9°C° 0 mm 1 m/S 614 mmHg 68%
22:00 +8°C° 0 mm 1 m/S 614 mmHg 70%
23:00 +8°C° 0 mm 1 m/S 614 mmHg 72%

15 Mai, Samstag

Zeit Temperatur Niederschläge Wind Luftdruck Luftfeuchtigkeit
00:00 +8°C° 0 mm 1 m/S 614 mmHg 72%
01:00 +7°C° 0 mm 1 m/S 614 mmHg 71%
02:00 +7°C° 0 mm 1 m/S 613 mmHg 71%
03:00 +7°C° 0 mm 1 m/S 613 mmHg 71%
04:00 +7°C° 0 mm 1 m/S 613 mmHg 70%
05:00 +6°C° 0 mm 1 m/S 613 mmHg 70%
06:00 +8°C° 0 mm 1 m/S 614 mmHg 65%
07:00 +9°C° 0 mm 1 m/S 614 mmHg 61%
08:00 +10°C° 0 mm 1 m/S 615 mmHg 56%
09:00 +12°C° 0 mm 2 m/S 615 mmHg 52%
10:00 +13°C° 0 mm 2 m/S 615 mmHg 48%
11:00 +15°C° 0 mm 2 m/S 615 mmHg 44%
12:00 +16°C° 0 mm 2 m/S 614 mmHg 42%
13:00 +17°C° 0 mm 3 m/S 614 mmHg 39%
14:00 +18°C° 0 mm 3 m/S 614 mmHg 37%
15:00 +18°C° 0.1 mm 3 m/S 614 mmHg 39%
16:00 +17°C° 0.1 mm 3 m/S 614 mmHg 42%
17:00 +17°C° 0.1 mm 2 m/S 614 mmHg 44%
18:00 +16°C° 0.2 mm 2 m/S 613 mmHg 51%
19:00 +14°C° 0.2 mm 2 m/S 613 mmHg 58%
20:00 +13°C° 0.2 mm 1 m/S 613 mmHg 65%
21:00 +12°C° 0.1 mm 1 m/S 613 mmHg 67%
22:00 +11°C° 0.1 mm 1 m/S 613 mmHg 68%
23:00 +11°C° 0.1 mm 1 m/S 612 mmHg 69%
Mehr zeigen

Wir brauchen deine Erlaubnis

Meteoprog und unser Service Anbieter werden persönliche Daten aufbewahren, so wie Cookies, Geräte Bezeichnung oder ähnliche Technologien von deinem Gerät und Prozess, so wie Persönliche Daten Inhalte und Werbungen, genauso wie social Media und den Verkehr zu analysieren.

  • Aufbewahrung und/oder Zugang zu deiner Geräte Informationen.

    Cookies, Geräte Bezeichnung oder andere Informationen, können aufbewahrt oder Zugang zu deinem Gerät erhalten, für den Grund, der oben angegeben wird.

  • Personalisierte Werbung und Inhalte, Messungen, Einblick in das Publikum und Produkt Entwicklung.

    Werbungen und Inhalte können personalisiert werden, basierend auf ein Profil. Mehr Daten können besser personalisierte Werbungen und Inhalte hinzufügen. Werbung und Inhalte können gezeigt und gemessen werden. Einblicke über das Publikum, welche die Werbung gesehen haben und den Inhalt, können abgeleitet werden. So wie Daten können genutzt werden, um es zu verbessern oder die Benutzer Erfahrung zu verbessern das System und die Software.

Wenn du “Ich stimme zu” klickst, erlaubst du uns, die Cookies zu benutzen die Geräte Bezeichnung, den Web oder ähnliche Technologien zu benutzen. Deine Settings, können in deinem Gerät bei deinem Browser geändert werden.

Für den bestimmten Zweck, berechtigten Interessen beruhen darauf, mehr als auf den Inhalt. Du kannst mehr darüber in unseren Privaten und Cookie Politik lesen.